This demonstration page uses our WeatherBlox Daily Observations layout. Learn more.

40.92945, -100.16068

Hourly Observations for May 1, 2017

Temp ( °F °C ) Dew Point ( °F °C ) Humidity (%) Winds ( mph kmh ) Pressure ( in mb ) Visibility ( mi km ) Precip ( " mm )
12:15 am 00:15 Cloudy with Light Rain 34 1 32 0.1 94 94 N 14 22 29.77 1008 10 16.09344 0.03 0.762
12:35 am 00:35 Cloudy with Light Rain 34 1.2 32 0.2 93 93 N 13 20 29.77 1008 10 16.09344 0.03 0.762
12:55 am 00:55 Cloudy 34 1.1 32 0 92 92 NW 9 15 29.77 1008 10 16.09344 0.03 0.762
1:15 am 01:15 Cloudy 35 1.6 32 -0.2 88 88 NNW 10 17 29.77 1008 10 16.09344 0 0
1:35 am 01:35 Cloudy 35 1.6 32 -0.2 88 88 NNW 12 19 29.77 1008 10 16.09344 0 0
1:55 am 01:55 Cloudy 35 1.5 32 -0.2 89 89 NNW 8 13 29.77 1008 10 16.09344 0 0
2:15 am 02:15 Cloudy 35 1.5 32 -0.2 89 89 NNW 8 13 29.77 1008 10 16.09344 0 0
2:35 am 02:35 Partly Cloudy 34 1.2 32 -0.2 91 91 NW 8 13 29.77 1008 10 16.09344 0 0
2:55 am 02:55 Clear 35 1.4 32 -0.2 89 89 NW 8 13 29.77 1008 10 16.09344 0 0
3:15 am 03:15 Clear 35 1.4 31 -0.3 89 89 WNW 8 13 29.77 1008 10 16.09344 0 0
3:35 am 03:35 Clear 34 1.2 31 -0.3 90 90 WNW 9 15 29.77 1008 10 16.09344 0 0
3:55 am 03:55 Clear 34 1.2 31 -0.4 89 89 WNW 12 19 29.77 1008 10 16.09344 0 0
4:15 am 04:15 Clear 35 1.7 30 -1 82 82 WNW 15 24 29.77 1008 10 16.09344 0 0
4:35 am 04:35 Clear 36 2 29 -1.5 78 78 WNW 15 24 29.77 1008 10 16.09344 0 0
4:55 am 04:55 Clear 36 2 29 -1.8 76 76 WNW 15 24 29.77 1008 10 16.09344 0 0
5:15 am 05:15 Clear 35 1.8 28 -2.2 75 75 NW 15 24 29.77 1008 10 16.09344 0 0
5:35 am 05:35 Clear 34 1.1 28 -2.1 79 79 WNW 16 26 29.77 1008 10 16.09344 0 0
5:55 am 05:55 Clear 34 1 27 -2.6 77 77 WNW 20 31 29.77 1008 10 16.09344 0 0
6:15 am 06:15 Clear 35 1.5 27 -3 72 72 WNW 24 39 29.77 1008 10 16.09344 0 0
6:35 am 06:35 Clear 35 1.7 26 -3.4 69 69 NW 21 33 29.77 1008 10 16.09344 0 0
6:55 am 06:55 Sunny 34 1.1 26 -3.5 72 72 NW 18 30 29.77 1008 10 16.09344 0 0
7:15 am 07:15 Sunny 33 0.7 26 -3.5 74 74 WNW 15 24 29.83 1010 10 16.09344 0 0
7:35 am 07:35 Sunny 34 1 26 -3.3 73 73 NW 16 26 29.83 1010 10 16.09344 0 0
7:55 am 07:55 Sunny 34 1 26 -3.2 74 74 NW 13 20 29.83 1010 10 16.09344 0 0
8:15 am 08:15 Sunny 35 1.5 27 -2.7 74 74 NW 12 19 29.83 1010 10 16.09344 0 0
8:35 am 08:35 Sunny 36 2.2 27 -2.6 71 71 NW 14 22 29.83 1010 10 16.09344 0 0
8:55 am 08:55 Sunny 37 2.5 28 -2.3 71 71 NW 15 24 29.83 1010 10 16.09344 0 0
9:15 am 09:15 Sunny 37 2.9 28 -2 71 71 NW 14 22 29.83 1010 10 16.09344 0 0
9:35 am 09:35 Sunny 38 3.5 28 -2 68 68 WNW 17 28 29.83 1010 10 16.09344 0 0
9:55 am 09:55 Sunny 38 3.6 29 -1.6 69 69 NW 17 28 29.83 1010 10 16.09344 0 0
10:15 am 10:15 Sunny 39 4 30 -1.2 69 69 NW 15 24 29.83 1010 10 16.09344 0 0
10:35 am 10:35 Sunny 40 4.6 31 -0.6 69 69 NW 12 19 29.8 1009 10 16.09344 0 0
10:55 am 10:55 Sunny 42 5.5 32 0 68 68 NNW 5 7 29.8 1009 10 16.09344 0 0
11:15 am 11:15 Sunny 42 5.8 32 0 67 67 NW 7 11 29.8 1009 10 16.09344 0 0
11:35 am 11:35 Sunny 44 6.5 32 0.1 64 64 WNW 5 7 29.8 1009 10 16.09344 0 0
11:55 am 11:55 Sunny 45 7.3 33 0.7 63 63 WNW 6 9 29.83 1010 10 16.09344 0 0
12:15 pm 12:15 Sunny 46 8 33 0.7 60 60 W 6 9 29.8 1009 10 16.09344 0 0
12:35 pm 12:35 Sunny 48 8.9 34 1 58 58 W 6 9 29.8 1009 10 16.09344 0 0
12:55 pm 12:55 Sunny 50 10.1 35 1.6 56 56 Calm 29.8 1009 10 16.09344 0 0
1:15 pm 13:15 Sunny 52 11.1 37 2.9 57 57 SSW 5 7 29.77 1008 10 16.09344 0 0
1:35 pm 13:35 Sunny 53 11.8 37 2.6 54 54 S 5 7 29.74 1007 10 16.09344 0 0
1:55 pm 13:55 Sunny 55 12.5 36 2.3 50 50 SW 6 9 29.74 1007 10 16.09344 0 0
2:15 pm 14:15 Sunny 55 13 39 3.7 54 54 SW 6 9 29.74 1007 10 16.09344 0 0
2:35 pm 14:35 Sunny 57 13.8 39 4.1 52 52 SW 6 9 29.74 1007 10 16.09344 0 0
2:55 pm 14:55 Partly Cloudy 59 14.8 40 4.5 50 50 SSW 8 13 29.71 1006 10 16.09344 0 0
3:15 pm 15:15 Partly Cloudy 58 14.6 42 5.4 54 54 S 8 13 29.71 1006 10 16.09344 0 0
3:35 pm 15:35 Partly Cloudy 59 14.8 41 5 52 52 S 7 11 29.71 1006 10 16.09344 0 0
3:55 pm 15:55 Mostly Cloudy with Light Rain 58 14.2 43 5.9 58 58 SSE 5 7 29.71 1006 10 16.09344 0 0
4:15 pm 16:15 Mostly Cloudy 56 13.1 45 7.4 69 69 SSW 8 13 29.74 1007 10 16.09344 0 0
4:35 pm 16:35 Sunny 61 15.9 44 6.4 53 53 WSW 7 11 29.71 1006 10 16.09344 0 0
4:55 pm 16:55 Partly Cloudy 60 15.7 44 6.6 55 55 WNW 8 13 29.71 1006 10 16.09344 0 0
5:15 pm 17:15 Mostly Cloudy 62 16.6 45 7.1 54 54 N 12 19 29.74 1007 10 16.09344 0 0
5:35 pm 17:35 Cloudy with Light Drizzle 60 15.3 42 5.7 53 53 NNW 13 20 29.74 1007 10 16.09344 0 0
5:55 pm 17:55 Cloudy 58 14.6 44 6.4 58 58 N 15 24 29.74 1007 10 16.09344 0 0
6:15 pm 18:15 Partly Cloudy 59 15 43 6.3 56 56 N 14 22 29.77 1008 10 16.09344 0 0
6:35 pm 18:35 Partly Cloudy 58 14.4 44 6.4 59 59 N 9 15 29.8 1009 10 16.09344 0 0
6:55 pm 18:55 Windy with Snow Likely 35 1.5 32 0.1 91 91 NNW 29 46 29.77 1008 5 8.04672 0.02 0.508
7:15 pm 19:15 Cloudy 58 14.5 42 5.8 56 56 N 12 19 29.8 1009 10 16.09344 0 0
7:35 pm 19:35 Mostly Cloudy 57 13.7 44 6.5 62 62 N 9 15 29.8 1009 10 16.09344 0 0
7:55 pm 19:55 Mostly Cloudy 55 12.6 45 7.3 70 70 NNW 6 9 29.8 1009 10 16.09344 0 0
8:15 pm 20:15 Mostly Cloudy 53 11.8 44 6.5 70 70 NNW 6 9 29.83 1010 10 16.09344 0 0
8:35 pm 20:35 Mostly Cloudy 51 10.8 42 5.5 70 70 NNW 18 30 29.85 1011 10 16.09344 0 0
8:55 pm 20:55 Partly Cloudy 51 10.6 39 4.1 64 64 NNW 14 22 29.88 1012 10 16.09344 0 0
9:15 pm 21:15 Partly Cloudy 48 8.8 39 4 72 72 NW 9 15 29.88 1012 10 16.09344 0 0
9:35 pm 21:35 Clear 47 8.2 39 3.9 75 75 W 9 15 29.91 1013 10 16.09344 0 0
9:55 pm 21:55 Clear 46 7.5 39 4 79 79 W 10 17 29.94 1014 10 16.09344 0 0
10:15 pm 22:15 Clear 47 8.1 38 3.6 74 74 WNW 12 19 29.94 1014 10 16.09344 0 0
10:35 pm 22:35 Clear 47 8.3 38 3.6 73 73 WNW 13 20 29.94 1014 10 16.09344 0 0
10:55 pm 22:55 Clear 47 8.4 39 3.8 73 73 WNW 10 17 29.97 1015 10 16.09344 0 0
11:15 pm 23:15 Partly Cloudy 47 8.1 39 3.8 75 75 W 10 17 29.97 1015 10 16.09344 0 0
11:35 pm 23:35 Partly Cloudy 45 7.3 38 3.5 77 77 W 10 17 29.97 1015 10 16.09344 0 0
11:55 pm 23:55 Clear 45 7.4 38 3.3 75 75 WNW 10 17 29.97 1015 10 16.09344 0 0

Powered by AerisWeather